Weather History for Cross City, FL

Change the Weather History Date:

Friday, November 8, 2013

  Actual Average Record
Temperature  
Mean Temperature 61 °F 64 °F  
Max Temperature 72 °F 78 °F 84 °F (2003)
Min Temperature 49 °F 51 °F 30 °F (2007)
Degree Days  
Heating Degree Days 4 3  
Month to date heating degree days 11 24  
Since 1 July heating degree days 29 56  
Cooling Degree Days 0 2  
Month to date cooling degree days 26 23  
Year to date cooling degree days 2777 2566  
Growing Degree Days 11 (Base 50)    
Moisture  
Dew Point 46 °F    
Average Humidity 59    
Maximum Humidity 78    
Minimum Humidity 47    
Precipitation  
Precipitation 0.00 in 0.07 in 0.09 in (2014)
Month to date precipitation 1.09 0.57  
Year to date precipitation 60.27 43.80  
Sea Level Pressure  
Sea Level Pressure 30.15 in    
Wind  
Wind Speed 9 mph (NE)    
Max Wind Speed 17 mph    
Max Gust Speed 26 mph    
T = Trace of Precipitation, MM = Missing Value Source: NWS Daily Summary

Daily Weather History Graph

Daily Weather History Graph

Search for Another Location

Airport:

Trip Planner

Search our weather history database for the weather conditions in past years. The results will help you decide how hot, cold, wet, or windy it might be!

Date:

Astronomy

Nov. 08, 2013 Rise Set
Actual Time 6:51 AM EST 5:40 PM EST
Civil Twilight 6:26 AM EST 6:05 PM EST
Nautical Twilight 5:57 AM EST 6:34 PM EST
Astronomical Twilight 5:29 AM EST 7:02 PM EST
Moon 11:46 AM EST (11/8) 10:58 PM EST (11/8)
Length of Visible Light 11h 39m
Length of Day
10h 49m
Waxing Crescent, 33% of the Moon is Illuminated
Nov 8
Waxing Crescent
Nov 10
First Quarter
Nov 17
Full
Nov 25
Last Quarter
Dec 2
New

Hourly Weather History & Observations

Time (EST) Temp. Dew Point Humidity Pressure Visibility Wind Dir Wind Speed Gust Speed Precip Events Conditions
12:53 AM 66.0 °F 54.0 °F 65% 30.07 in - North 12.7 mph 19.6 mph N/A   Unknown
1:53 AM 63.0 °F 48.9 °F 60% 30.09 in - North 9.2 mph 16.1 mph N/A   Unknown
2:53 AM 60.1 °F 45.0 °F 57% 30.09 in - North 12.7 mph - N/A   Unknown
3:53 AM 55.9 °F 42.1 °F 60% 30.11 in - North 11.5 mph - N/A   Unknown
4:53 AM 54.0 °F 39.0 °F 57% 30.12 in - NNE 12.7 mph 21.9 mph N/A   Unknown
5:53 AM 52.0 °F 39.0 °F 61% 30.14 in - NNE 10.4 mph 18.4 mph N/A   Unknown
6:53 AM 50.0 °F 39.0 °F 66% 30.15 in - NNE 9.2 mph - N/A   Unknown
7:53 AM 51.1 °F 39.9 °F 66% 30.17 in - NNE 9.2 mph - N/A   Unknown
8:53 AM 55.0 °F 41.0 °F 59% 30.19 in - NNE 10.4 mph 19.6 mph N/A   Unknown
9:53 AM 60.1 °F 43.0 °F 53% 30.19 in - NE 9.2 mph 18.4 mph N/A   Unknown
10:53 AM 63.0 °F 46.0 °F 54% 30.18 in - NE 9.2 mph 17.3 mph N/A   Unknown
11:53 AM 66.0 °F 48.0 °F 52% 30.17 in - NE 9.2 mph 18.4 mph N/A   Unknown
12:53 PM 69.1 °F 48.9 °F 49% 30.15 in - NE 10.4 mph 17.3 mph N/A   Unknown
1:53 PM 71.1 °F 51.1 °F 49% 30.13 in - NE 11.5 mph 18.4 mph N/A   Unknown
2:53 PM 71.1 °F 51.1 °F 49% 30.12 in - NE 9.2 mph 19.6 mph N/A   Unknown
3:53 PM 71.1 °F 52.0 °F 51% 30.12 in - Variable 6.9 mph - N/A   Unknown
4:53 PM 68.0 °F 51.1 °F 55% 30.14 in - ENE 9.2 mph - N/A   Unknown
5:53 PM 63.0 °F 50.0 °F 63% 30.16 in - ENE 8.1 mph - N/A   Unknown
6:53 PM 60.1 °F 48.9 °F 67% 30.18 in - NE 5.8 mph - N/A   Unknown
7:53 PM 57.9 °F 46.9 °F 67% 30.19 in - ENE 6.9 mph - N/A   Unknown
8:53 PM 57.0 °F 46.0 °F 67% 30.21 in - NE 4.6 mph - N/A   Unknown
9:53 PM 55.0 °F 45.0 °F 69% 30.21 in - NE 5.8 mph - N/A   Unknown
10:53 PM 53.1 °F 45.0 °F 74% 30.20 in - NE 3.5 mph - N/A   Unknown
11:53 PM 52.0 °F 44.1 °F 74% 30.20 in - NE 4.6 mph - N/A   Unknown